Total_Precipitation_Accumulation
1.75 1.78 1.76 1.72 1.69 1.70 1.74 1.70 1.57 1.43 1.31 1.23 1.14 1.13 1.13 1.04 1.01 1.09 1.11 1.17 1.30 1.34 1.29 1.32 1.35 1.45 1.60 1.65 1.79 1.92 2.13 2.34 2.38 2.04 1.77 1.58 1.63 1.70 1.77 1.74 1.70 1.67 1.58
1.57 1.62 1.68 1.54 1.46 1.47 1.50 1.49 1.37 1.32 1.26 1.19 1.13 1.09 1.04 0.97 0.95 0.95 0.95 0.98 1.08 1.12 1.17 1.23 1.15 1.20 1.36 1.49 1.63 1.71 1.85 2.02 2.16 2.07 1.83 1.73 1.67 1.73 1.83 1.84 1.63 1.49 1.42
1.22 1.35 1.46 1.35 1.25 1.27 1.26 1.24 1.23 1.19 1.15 1.08 1.04 0.97 0.91 0.92 0.95 0.94 0.90 0.90 0.92 0.96 1.05 1.14 1.17 1.28 1.35 1.44 1.57 1.60 1.70 1.76 1.98 1.98 1.79 1.79 1.76 1.76 1.92 1.84 1.58 1.57 1.26
1.06 1.08 1.17 1.20 1.18 1.15 1.14 1.12 1.06 1.01 0.98 0.91 0.85 0.83 0.83 0.80 0.77 0.79 0.81 0.83 0.88 0.89 0.94 0.99 1.08 1.22 1.34 1.50 1.54 1.61 1.72 1.83 1.93 2.00 1.93 1.90 1.89 1.92 2.04 2.06 1.85 1.65 1.38
1.08 1.08 1.08 1.08 1.02 1.03 1.07 1.05 0.93 0.88 0.81 0.78 0.76 0.74 0.73 0.71 0.65 0.68 0.75 0.78 0.89 0.93 0.95 0.95 0.95 1.03 1.19 1.31 1.36 1.56 1.82 1.98 1.98 2.05 2.01 1.99 1.96 2.06 2.00 1.94 1.91 1.76 1.50
1.13 1.14 1.11 1.10 1.04 1.00 1.03 1.04 0.96 0.92 0.88 0.80 0.80 0.76 0.69 0.58 0.60 0.62 0.66 0.76 0.86 0.92 1.00 0.97 0.87 0.86 0.91 0.97 1.05 1.20 1.48 1.74 1.89 1.98 1.95 1.93 1.90 1.95 1.96 1.90 1.93 1.94 1.75
1.12 1.08 1.12 1.14 1.06 0.97 0.92 1.02 1.01 0.99 0.89 0.83 0.82 0.77 0.69 0.59 0.56 0.54 0.55 0.66 0.82 0.91 0.99 1.00 0.84 0.74 0.88 0.98 1.00 1.02 1.14 1.34 1.63 1.86 1.90 1.77 1.88 1.96 2.05 2.05 1.96 1.97 1.89
1.07 1.02 1.01 1.03 1.04 0.98 0.95 0.97 0.98 1.00 0.97 0.88 0.80 0.79 0.79 0.59 0.55 0.53 0.54 0.65 0.79 0.84 0.86 0.91 0.97 0.97 0.90 0.95 1.01 1.15 1.32 1.43 1.49 1.51 1.68 1.73 1.75 1.78 1.81 1.86 1.92 1.94 1.81
0.96 0.95 0.90 0.86 0.86 0.85 0.85 0.90 0.99 1.01 0.97 0.85 0.79 0.84 0.82 0.65 0.56 0.54 0.55 0.66 0.76 0.77 0.70 0.70 0.76 0.82 0.80 0.88 1.06 1.31 1.51 1.69 1.55 1.50 1.56 1.72 1.72 1.56 1.47 1.65 1.93 2.05 1.87
0.84 0.77 0.75 0.77 0.77 0.80 0.83 0.88 0.88 0.93 0.92 0.79 0.71 0.74 0.71 0.62 0.54 0.50 0.54 0.60 0.70 0.73 0.77 0.75 0.78 0.77 0.78 0.93 1.14 1.46 1.68 1.78 1.62 1.52 1.64 1.78 1.71 1.63 1.60 1.70 1.93 1.97 1.86
0.67 0.63 0.66 0.66 0.66 0.67 0.78 0.82 0.82 0.79 0.83 0.80 0.72 0.67 0.63 0.52 0.45 0.47 0.49 0.51 0.59 0.69 0.75 0.83 0.87 0.88 0.82 0.93 1.16 1.41 1.64 1.70 1.65 1.61 1.66 1.71 1.75 1.78 1.68 1.68 1.76 1.78 1.80
0.58 0.57 0.58 0.57 0.49 0.51 0.69 0.74 0.73 0.79 0.76 0.75 0.78 0.76 0.63 0.51 0.39 0.34 0.37 0.41 0.49 0.71 0.83 0.85 0.87 0.89 0.88 1.01 1.14 1.41 1.67 1.83 1.72 1.59 1.52 1.50 1.50 1.54 1.53 1.45 1.44 1.45 1.51
0.60 0.63 0.57 0.50 0.49 0.48 0.55 0.60 0.63 0.71 0.67 0.63 0.67 0.67 0.58 0.48 0.36 0.26 0.25 0.30 0.40 0.55 0.72 0.87 0.88 0.84 0.98 1.24 1.43 1.58 1.77 1.90 1.79 1.57 1.47 1.37 1.31 1.29 1.28 1.33 1.32 1.30 1.24
0.62 0.64 0.59 0.55 0.51 0.45 0.43 0.41 0.42 0.46 0.49 0.55 0.57 0.56 0.52 0.46 0.34 0.26 0.27 0.30 0.37 0.46 0.59 0.79 0.95 1.03 1.18 1.47 1.70 1.84 1.91 1.86 1.67 1.49 1.38 1.32 1.24 1.22 1.23 1.22 1.27 1.27 1.30
0.59 0.55 0.52 0.48 0.46 0.44 0.36 0.31 0.30 0.32 0.33 0.39 0.43 0.45 0.45 0.38 0.28 0.28 0.29 0.30 0.36 0.44 0.53 0.74 0.96 1.09 1.30 1.53 1.66 1.68 1.67 1.63 1.56 1.42 1.31 1.25 1.21 1.20 1.19 1.19 1.23 1.18 1.22
0.53 0.52 0.45 0.42 0.40 0.37 0.35 0.33 0.28 0.25 0.24 0.24 0.26 0.27 0.28 0.28 0.25 0.24 0.26 0.31 0.38 0.47 0.56 0.81 1.03 1.14 1.32 1.45 1.56 1.53 1.45 1.41 1.37 1.32 1.28 1.22 1.18 1.17 1.19 1.16 1.13 1.13 1.17
0.43 0.44 0.41 0.34 0.34 0.35 0.36 0.44 0.40 0.29 0.23 0.22 0.21 0.22 0.23 0.24 0.23 0.24 0.25 0.31 0.36 0.45 0.61 0.84 1.04 1.20 1.30 1.35 1.39 1.39 1.34 1.28 1.21 1.19 1.18 1.16 1.13 1.12 1.11 1.07 1.04 1.04 1.05
0.34 0.33 0.31 0.30 0.32 0.34 0.32 0.31 0.34 0.39 0.37 0.31 0.23 0.22 0.22 0.22 0.24 0.27 0.29 0.35 0.46 0.53 0.70 0.87 1.02 1.09 1.17 1.24 1.25 1.26 1.24 1.17 1.12 1.12 1.18 1.17 1.08 1.02 0.96 0.95 0.97 0.93 0.91
0.30 0.30 0.27 0.27 0.28 0.29 0.30 0.25 0.24 0.26 0.32 0.33 0.29 0.25 0.23 0.23 0.26 0.31 0.36 0.44 0.56 0.64 0.73 0.84 0.90 0.96 1.02 1.08 1.09 1.08 1.09 1.06 1.01 1.01 1.02 1.03 1.01 0.93 0.87 0.82 0.82 0.76 0.75
0.28 0.29 0.27 0.25 0.25 0.26 0.26 0.24 0.23 0.22 0.26 0.28 0.30 0.27 0.26 0.34 0.41 0.41 0.39 0.43 0.52 0.62 0.70 0.77 0.78 0.78 0.82 0.87 0.85 0.81 0.83 0.85 0.85 0.88 0.86 0.86 0.89 0.85 0.79 0.74 0.72 0.72 0.74
0.27 0.26 0.25 0.24 0.25 0.24 0.23 0.24 0.24 0.24 0.26 0.29 0.26 0.22 0.30 0.38 0.48 0.46 0.45 0.47 0.54 0.59 0.60 0.63 0.66 0.67 0.64 0.64 0.67 0.68 0.71 0.78 0.80 0.81 0.79 0.78 0.77 0.72 0.66 0.63 0.63 0.62 0.60
0.30 0.28 0.26 0.27 0.27 0.24 0.22 0.21 0.23 0.22 0.24 0.27 0.24 0.22 0.31 0.38 0.46 0.49 0.50 0.54 0.57 0.61 0.60 0.59 0.56 0.58 0.60 0.61 0.63 0.67 0.71 0.73 0.75 0.76 0.75 0.72 0.70 0.66 0.61 0.57 0.57 0.58 0.57
0.33 0.32 0.31 0.30 0.27 0.23 0.20 0.19 0.19 0.21 0.21 0.22 0.23 0.25 0.30 0.40 0.48 0.54 0.58 0.60 0.60 0.58 0.54 0.53 0.56 0.58 0.56 0.55 0.55 0.60 0.63 0.63 0.67 0.73 0.75 0.69 0.63 0.59 0.56 0.55 0.55 0.56 0.55
0.27 0.26 0.25 0.26 0.27 0.25 0.22 0.21 0.21 0.20 0.21 0.23 0.25 0.26 0.30 0.38 0.44 0.53 0.61 0.65 0.67 0.65 0.59 0.57 0.57 0.56 0.53 0.51 0.52 0.53 0.51 0.51 0.53 0.57 0.59 0.56 0.51 0.48 0.47 0.49 0.48 0.49 0.49
0.23 0.24 0.24 0.26 0.25 0.22 0.20 0.20 0.22 0.24 0.25 0.26 0.27 0.27 0.28 0.31 0.40 0.46 0.52 0.59 0.63 0.68 0.70 0.70 0.68 0.62 0.54 0.47 0.45 0.45 0.51 0.52 0.48 0.47 0.51 0.49 0.41 0.42 0.44 0.44 0.44 0.43 0.44
0.21 0.21 0.23 0.25 0.26 0.24 0.21 0.20 0.20 0.20 0.22 0.26 0.27 0.26 0.25 0.28 0.34 0.37 0.39 0.44 0.51 0.60 0.66 0.72 0.74 0.64 0.53 0.46 0.46 0.47 0.44 0.37 0.33 0.36 0.45 0.47 0.41 0.38 0.38 0.39 0.38 0.38 0.39